{"data":{"norad_id":52699,"intl_designator":"2022-053AV","name":"STARLINK-3987","alt_names":[],"object_type":"PAYLOAD","status":"ACTIVE","operator":null,"country":"US","launch_date":"2022-05-18","launch_site_code":"AFETR","launch_vehicle":null,"mission":null,"orbit_class":"UNKNOWN","rcs_meters":null,"size_class":null,"mass_kg":null,"dimensions":null,"purposes":["comms"],"wikipedia_slug":null,"has_3d_model":false,"image_url":null,"decayed_at":null,"tle_current":{"epoch":"2026-09-20T05:07:54.351264Z","epoch_age_seconds":91180,"freshness":"FRESH","line1":"1 52699U 22053AV  26263.21382351  .00001435  00000+0  53595-4 0  9990","line2":"2 52699  53.1599 330.8004 0001066  83.9503 276.1621 15.34391417240812","mean_motion":15.34391417,"eccentricity":0.0001066,"inclination_deg":53.1599,"raan_deg":330.8004,"arg_perigee_deg":83.9503,"mean_anomaly_deg":276.1621,"bstar":5.3595e-5,"rev_number":24081,"period_min":93.84828304211,"perigee_km":461.99951452177,"apogee_km":463.45798709984,"semimajor_km":6840.8657508108,"source":"CELESTRAK","updated_at":"2026-09-20T09:00:40.108360Z"}}}